Location: Unspecified
(0.0000°N, 0.0000°E)
Time: 21:43:56
(UTC+00:00)

Vanguard 2 Rocket - All Passes

Search period start: 25 March 2017 00:00
Search period end: 04 April 2017 00:00
Orbit: 553 x 3328 km, 32.9° (Epoch: 24 March)

Date Brightness Start Highest point End Pass type
(mag) Time Alt. Az. Time Alt. Az. Time Alt. Az.
25 Mar - 06:07:48 10° NNW 06:17:30 20° NNE 06:29:41 10° ENE daylight
25 Mar - 08:20:23 10° NW 08:37:17 51° NE 08:56:24 10° ESE daylight
25 Mar - 10:36:23 10° WNW 10:56:33 77° SW 11:14:13 10° SE daylight
25 Mar - 12:58:48 10° W 13:15:11 32° SW 13:27:28 10° SSE daylight
25 Mar - 22:19:51 10° WSW 22:23:48 75° NW 22:28:06 10° NE night (unlit)
26 Mar - 05:10:00 10° N 05:15:22 13° NNE 05:21:43 10° NE visible
26 Mar - 07:20:41 10° NNW 07:35:05 38° NE 07:53:02 10° E daylight
26 Mar - 09:35:04 10° NW 09:54:14 85° NE 10:13:30 10° SE daylight
26 Mar - 11:54:31 10° WNW 12:13:17 44° SW 12:28:17 10° SSE daylight
26 Mar - 14:23:56 10° WSW 14:32:29 15° SSW 14:39:25 10° S daylight
26 Mar - 21:20:43 10° SW 21:24:52 45° SSE 21:28:40 10° ENE night (unlit)
26 Mar - 23:35:35 10° WNW 23:37:56 15° NNW 23:40:36 10° N night (unlit)
27 Mar - 06:21:36 10° NNW 06:33:06 27° NNE 06:48:11 10° E daylight
27 Mar - 08:34:31 10° NW 08:51:57 68° NE 09:11:56 10° ESE daylight
27 Mar - 10:51:35 10° WNW 11:11:08 59° SW 11:28:28 10° SE daylight
27 Mar - 13:16:43 10° WSW 13:30:30 23° SSW 13:41:17 10° SSE daylight
27 Mar - 20:21:44 10° SSW 20:25:41 23° SSE 20:28:56 10° E visible
27 Mar - 22:35:12 10° W 22:38:35 27° NNW 22:42:12 10° NNE night (unlit)
28 Mar - 05:23:18 10° N 05:31:21 18° NNE 05:41:41 10° ENE visible
28 Mar - 07:34:40 10° NW 07:49:51 52° NE 08:09:20 10° ESE daylight
28 Mar - 09:49:48 10° WNW 10:08:47 75° SW 10:28:02 10° SE daylight
28 Mar - 12:11:19 10° W 12:28:19 33° SSW 12:42:13 10° SSE daylight
28 Mar - 14:44:21 10° SW 14:48:48 12° SSW 14:52:44 10° S daylight
28 Mar - 19:22:47 10° SSW 19:26:02 15° SSE 19:28:43 10° ESE visible
28 Mar - 21:35:18 10° WSW 21:39:36 62° NW 21:43:29 10° NE night (unlit)
29 Mar - 04:27:41 10° NNE 04:29:46 10° NNE 04:32:00 10° NE visible
29 Mar - 06:35:25 10° NNW 06:48:06 38° NE 07:05:32 10° E daylight
29 Mar - 08:48:55 10° NW 09:06:28 87° NE 09:26:50 10° SE daylight
29 Mar - 11:07:30 10° W 11:25:57 44° SW 11:42:32 10° SE daylight
29 Mar - 13:35:45 10° WSW 13:46:27 17° SSW 13:55:11 10° SSE daylight
29 Mar - 18:23:58 10° S 18:25:56 11° SSE 18:27:42 10° SSE visible
29 Mar - 20:35:36 10° SW 20:40:39 57° SSE 20:44:31 10° ENE visible
29 Mar - 22:52:28 10° NW 22:53:31 11° NNW 22:54:36 10° NNW night (unlit)
30 Mar - 05:36:49 10° NNW 05:46:41 26° NE 06:00:20 10° E visible
30 Mar - 07:48:49 10° NW 08:04:22 69° NE 08:24:49 10° ESE daylight
30 Mar - 10:05:04 10° WNW 10:23:29 57° SW 10:42:15 10° SE daylight
30 Mar - 12:29:09 10° WSW 12:43:54 25° SSW 12:56:11 10° SSE daylight
30 Mar - 19:35:54 10° SSW 19:41:21 31° SSE 19:45:15 10° E visible
30 Mar - 21:50:51 10° W 21:54:16 23° NW 21:57:27 10° NNE night (unlit)
31 Mar - 04:39:14 10° N 04:45:30 16° NNE 04:53:30 10° ENE visible
31 Mar - 06:49:22 10° NW 07:02:42 52° NE 07:21:48 10° ESE daylight
31 Mar - 09:03:43 10° WNW 09:21:03 73° SW 09:41:19 10° SE daylight
31 Mar - 11:24:16 10° W 11:41:13 33° SSW 11:56:32 10° SSE daylight
31 Mar - 13:55:14 10° SW 14:03:00 14° SSW 14:09:36 10° SSE daylight
31 Mar - 18:36:00 10° SSW 18:41:35 21° SSE 18:45:35 10° ESE visible
31 Mar - 20:50:20 10° WSW 20:55:20 54° NW 20:59:12 10° NE visible
01 Apr - 05:50:31 10° NNW 06:01:29 36° NE 06:17:41 10° E daylight
01 Apr - 08:03:16 10° NW 08:18:52 90° NE 08:39:40 10° SE daylight
01 Apr - 10:20:59 10° W 10:38:31 43° SSW 10:56:17 10° SE daylight
01 Apr - 12:47:55 10° WSW 13:00:07 19° SSW 13:10:27 10° SSE daylight
01 Apr - 15:19:45 10° SSW 15:22:24 11° S 15:24:49 10° S daylight
01 Apr - 17:35:46 10° SSW 17:41:19 17° SSE 17:45:29 10° SE daylight
01 Apr - 19:49:58 10° SW 19:56:20 71° SSE 20:00:33 10° ENE visible
02 Apr - 04:52:22 10° NNW 05:00:37 24° NE 05:12:21 10° E visible
02 Apr - 07:03:33 10° NW 07:17:08 70° NE 07:37:14 10° ESE daylight
02 Apr - 09:19:02 10° WNW 09:35:53 55° SSW 09:55:29 10° SE daylight
02 Apr - 11:42:01 10° WSW 11:57:05 25° SSW 12:10:39 10° SSE daylight
02 Apr - 14:13:35 10° SSW 14:19:57 13° S 14:25:24 10° SSE daylight
02 Apr - 16:34:53 10° SSW 16:40:31 15° SSE 16:44:56 10° SE daylight
02 Apr - 18:49:34 10° SW 18:56:55 41° SSE 19:01:33 10° E visible
02 Apr - 21:06:02 10° W 21:09:52 22° NW 21:13:03 10° NNE visible
03 Apr - 03:55:39 10° N 03:59:57 13° NE 04:05:13 10° ENE visible
03 Apr - 06:04:27 10° NW 06:15:56 51° NE 06:33:56 10° ESE daylight
03 Apr - 08:18:07 10° WNW 08:33:32 70° SW 08:54:05 10° SE daylight
03 Apr - 10:37:46 10° W 10:54:02 33° SSW 11:10:20 10° SSE daylight
03 Apr - 13:06:53 10° SW 13:16:56 16° SSW 13:25:29 10° SSE daylight
03 Apr - 15:32:56 10° SSW 15:39:05 14° S 15:44:02 10° SE daylight
03 Apr - 17:48:55 10° SSW 17:56:59 29° SSE 18:02:10 10° E daylight
03 Apr - 20:04:50 10° WSW 20:10:58 50° NW 20:15:07 10° NE visible
